Wind_Speed
12 10 10 9 7 5 5 5 5 4 4 3 3 3 2 3 3 3 3 4 4 4 4 4 3 2 2 1 1 2 2 3 3 4 4 4 4 5 6 6 7 7
13 12 11 11 9 7 6 6 6 5 5 5 4 4 3 3 2 1 2 3 4 4 5 5 5 4 3 2 2 1 0 0 0 1 1 2 2 3 4 5 6 6
14 13 13 13 12 11 9 8 8 8 7 7 7 6 4 4 4 3 2 0 1 3 4 4 5 6 5 5 4 3 2 2 1 1 1 1 1 1 1 2 3 4
16 15 15 15 15 14 14 12 12 11 10 9 9 9 8 6 5 5 5 4 3 1 0 2 3 4 4 5 5 4 4 4 3 3 3 3 2 2 2 1 1 1
20 18 17 18 18 18 18 17 15 15 14 13 12 12 11 9 8 8 7 7 7 6 4 2 1 1 1 2 2 3 3 3 4 4 4 4 4 4 4 3 3 2
23 22 21 21 21 21 21 21 19 18 18 17 16 14 14 13 11 10 9 9 9 9 8 7 6 5 4 3 2 2 2 3 3 3 3 4 4 5 5 5 5 5
25 23 22 22 22 24 25 24 23 21 20 20 19 17 16 16 14 12 12 11 11 11 10 10 10 9 8 7 6 5 5 5 5 5 5 4 4 5 5 6 6 6
26 24 22 22 23 24 26 27 27 26 24 23 22 21 19 19 18 15 14 13 12 12 12 11 11 12 11 11 10 9 8 8 8 8 9 9 8 8 7 8 9 9
27 26 25 26 27 27 27 27 27 27 27 27 25 23 22 22 21 19 17 16 14 14 14 13 13 13 12 12 12 12 11 11 10 11 12 12 12 12 11 10 11 13
29 30 30 31 33 34 33 32 32 32 31 31 29 26 25 26 25 23 22 20 19 18 18 16 16 15 13 12 12 13 14 13 13 13 13 15 15 16 17 15 13 14
34 35 36 36 35 36 35 34 35 37 36 35 34 31 29 30 29 27 27 26 25 24 23 22 21 20 18 16 14 13 14 15 15 14 14 16 18 19 19 19 17 16
30 32 35 35 34 34 34 34 37 41 41 39 38 35 33 33 34 33 32 29 26 25 26 26 25 25 24 23 21 18 16 15 16 17 17 18 19 20 19 19 18 18
23 26 29 31 31 31 30 31 36 39 36 32 32 33 34 34 36 36 33 29 26 27 27 28 29 28 26 25 25 24 21 18 18 19 20 21 21 21 21 19 20 20
18 20 22 24 25 25 24 25 28 28 25 23 24 28 28 27 27 28 28 26 26 26 27 29 32 30 25 22 24 25 25 24 23 23 23 24 24 24 24 23 23 23
14 15 16 18 18 19 20 22 22 20 20 21 22 24 24 22 21 21 21 21 22 23 25 28 30 29 25 22 24 26 28 30 29 27 25 25 26 27 27 26 26 26
17 17 18 19 19 19 20 20 21 20 20 21 22 23 24 23 22 22 21 22 23 24 26 27 27 26 25 24 24 26 28 31 32 30 28 27 28 29 29 28 28 28
24 23 23 23 23 23 22 23 24 25 26 26 26 26 26 25 25 25 24 25 26 27 27 28 27 26 25 25 24 24 26 29 31 32 31 29 29 29 29 29 29 29
27 27 27 27 26 25 25 25 25 25 26 27 28 28 28 28 27 27 28 28 28 28 28 29 30 29 28 27 26 24 25 27 30 32 32 31 30 30 30 30 29 30
27 28 29 30 29 28 27 26 25 24 24 24 25 26 28 29 28 28 28 28 28 28 29 30 30 29 29 29 28 27 27 28 30 32 33 32 31 31 31 31 31 31
25 26 27 28 29 29 28 27 25 24 24 23 23 23 24 26 27 27 27 27 27 27 27 28 29 29 29 28 27 27 28 29 30 33 34 33 32 31 32 32 33 33
24 24 25 26 27 28 28 27 26 26 25 24 24 23 23 24 25 26 26 26 26 26 26 27 29 30 28 27 27 27 27 28 30 33 33 32 32 32 32 33 34 35
25 26 26 26 27 27 27 27 27 27 26 26 25 25 25 25 25 25 26 27 27 26 27 29 31 30 28 28 28 28 28 28 30 32 32 31 32 32 34 35 36 36
27 28 28 28 28 28 28 28 28 27 27 26 26 26 26 26 27 27 27 28 28 28 30 31 30 29 29 29 29 29 29 28 30 32 32 32 32 33 35 36 36 36
28 28 28 29 29 29 28 28 28 27 27 27 27 26 26 26 27 28 28 29 30 31 31 30 29 29 30 31 31 31 30 29 30 32 33 33 33 35 36 36 36 36
29 30 30 31 31 30 30 29 29 29 29 29 29 29 29 29 29 30 30 31 32 32 31 30 29 30 31 31 31 31 30 30 31 33 33 34 35 36 36 36 35 36
31 32 32 33 34 34 34 34 34 34 34 34 34 34 33 33 34 34 34 34 34 33 32 32 32 32 31 31 31 31 31 31 32 33 34 35 35 36 36 35 35 35
Wind_Direction
242 247 254 260 260 265 276 280 292 308 307 294 274 281 310 340 8 29 41 53 58 52 49 45 40 37 26 16 338 314 306 303 301 299 302 300 295 289 284 282 281 279
237 241 245 254 259 259 261 272 283 290 295 299 295 288 288 296 312 346 30 54 69 67 65 64 62 67 71 81 100 103 117 252 293 322 329 327 325 311 299 295 292 290
233 240 243 250 258 260 257 262 274 277 275 279 285 286 280 281 285 279 272 276 84 75 72 72 68 67 72 77 84 91 97 95 85 81 81 79 67 56 7 315 303 297
229 236 242 247 254 258 258 257 263 267 266 267 271 274 272 263 263 270 266 253 241 221 92 68 67 62 61 64 68 71 74 72 65 56 52 52 55 59 61 56 25 337
230 233 238 244 250 253 254 254 255 260 263 264 264 266 269 264 255 260 262 254 247 240 236 249 269 307 14 34 41 46 48 49 54 54 47 38 38 39 36 36 36 25
231 234 237 243 249 252 255 254 253 256 258 262 265 264 266 268 262 259 259 259 258 252 242 240 250 258 262 271 290 315 340 348 352 10 28 22 16 17 19 20 19 16
233 236 241 247 253 256 258 259 258 257 257 260 265 265 266 268 265 260 260 261 262 263 259 250 248 251 254 260 266 270 282 296 304 314 324 333 342 344 345 348 351 358
235 238 243 251 258 261 263 265 265 264 262 262 263 266 268 270 268 265 264 265 265 265 268 269 267 263 260 262 265 268 277 284 292 304 311 312 316 320 322 325 327 330
236 237 243 250 255 260 264 266 267 268 269 267 265 265 269 271 272 270 268 269 271 271 271 275 278 275 272 271 273 278 284 286 290 298 304 307 309 311 311 311 314 316
244 244 249 254 254 256 261 264 264 265 266 267 266 265 266 268 269 271 272 271 273 275 273 274 277 279 280 279 278 282 287 289 291 295 298 299 301 303 302 299 300 304
254 252 253 256 257 259 264 265 263 261 260 262 263 262 262 263 262 263 265 265 269 272 272 273 275 277 280 282 280 278 282 289 293 294 294 295 297 298 297 294 292 293
254 252 252 253 256 260 264 267 267 262 257 256 261 266 269 269 266 263 258 256 260 264 267 269 271 273 275 278 281 282 282 286 288 289 293 296 298 299 299 297 294 291
253 250 250 252 256 260 263 267 269 264 255 252 262 273 275 273 274 275 272 266 264 267 269 267 262 262 265 271 278 283 284 284 283 284 290 295 296 296 296 297 298 297
258 255 255 257 261 265 265 266 269 267 262 263 272 279 278 275 277 281 283 280 278 280 283 278 267 261 261 268 279 285 287 288 287 286 287 289 291 291 290 291 296 298
262 262 264 266 268 269 268 268 271 272 273 274 276 276 274 272 274 276 280 282 282 283 288 288 282 276 272 275 281 286 289 289 289 288 288 287 285 285 284 286 292 294
271 272 275 276 279 279 278 279 280 280 279 278 277 275 274 273 273 273 274 275 277 278 280 282 283 281 279 279 282 283 284 284 285 286 287 286 284 282 282 284 288 290
277 278 280 282 282 282 280 280 281 281 280 279 278 278 278 278 277 275 274 274 276 278 278 276 277 278 278 279 280 278 277 279 282 284 286 285 284 283 282 282 284 285
278 279 281 283 284 283 281 279 278 278 278 277 277 277 277 276 275 275 276 276 275 276 276 277 278 280 279 279 278 275 275 276 278 281 284 283 282 282 281 280 281 281
280 279 279 281 282 283 282 281 280 278 277 277 278 278 279 279 279 278 277 277 276 275 276 277 278 279 278 277 277 275 274 274 274 276 279 279 279 280 280 280 280 280
279 278 278 278 278 278 278 278 278 278 277 278 278 278 279 280 281 281 280 280 279 278 278 278 278 277 274 274 276 275 273 272 271 272 273 274 276 277 277 278 278 278
280 279 278 277 277 277 277 277 277 277 276 276 276 276 277 277 278 280 280 280 280 281 280 279 277 276 275 276 277 275 273 273 271 269 269 271 273 274 274 274 275 276
281 281 278 276 275 274 274 276 277 278 278 278 277 276 276 277 278 279 281 281 282 281 279 277 276 278 280 280 277 274 273 272 270 269 269 270 270 272 273 273 274 275
284 283 281 278 275 273 273 273 274 275 277 278 279 279 280 281 282 282 283 284 282 280 277 277 278 278 279 278 275 274 274 272 269 268 270 271 271 271 271 272 274 275
285 283 280 278 276 274 274 274 275 276 278 279 281 282 283 284 285 285 284 282 280 278 278 280 280 278 276 275 274 275 275 271 268 270 272 272 271 271 271 273 275 276
283 281 278 276 275 274 274 274 274 275 277 279 281 283 284 286 286 285 283 281 280 280 281 281 279 277 276 276 276 275 273 269 268 270 271 271 270 271 273 274 276 277
280 279 278 277 278 278 278 278 278 278 277 279 280 282 284 286 285 283 283 283 282 283 282 279 277 276 277 276 276 275 272 270 270 271 270 269 269 270 271 273 276 278
Height
3113 3114 3114 3115 3115 3116 3116 3116 3116 3116 3116 3117 3117 3117 3117 3117 3117 3117 3117 3117 3116 3116 3116 3116 3116 3116 3116 3116 3116 3116 3117 3117 3117 3117 3117 3118 3118 3119 3119 3119 3120 3120
3112 3113 3114 3114 3115 3115 3116 3116 3116 3116 3116 3116 3117 3117 3117 3117 3118 3118 3118 3118 3117 3117 3117 3116 3116 3116 3116 3116 3116 3116 3117 3117 3117 3117 3117 3117 3118 3118 3118 3118 3119 3119
3110 3111 3112 3113 3114 3114 3115 3115 3115 3116 3116 3116 3116 3116 3117 3117 3117 3118 3118 3118 3118 3118 3117 3117 3117 3117 3117 3117 3117 3117 3117 3117 3117 3117 3117 3117 3117 3118 3118 3118 3118 3118
3108 3110 3111 3112 3112 3113 3113 3114 3115 3115 3115 3115 3115 3115 3116 3116 3117 3117 3117 3117 3118 3118 3118 3118 3117 3117 3117 3117 3117 3117 3117 3117 3117 3117 3117 3117 3117 3118 3118 3118 3118 3118
3107 3108 3109 3110 3110 3111 3111 3112 3113 3114 3114 3114 3114 3114 3114 3115 3115 3116 3116 3116 3117 3117 3117 3117 3117 3117 3117 3117 3117 3117 3117 3117 3117 3117 3117 3117 3118 3118 3118 3118 3118 3118
3104 3106 3107 3108 3109 3109 3110 3110 3111 3112 3113 3113 3113 3114 3114 3114 3114 3115 3115 3115 3115 3116 3116 3116 3116 3116 3116 3116 3117 3117 3117 3117 3117 3117 3117 3117 3117 3117 3117 3117 3117 3117
3102 3104 3105 3107 3108 3108 3109 3109 3110 3111 3112 3112 3112 3112 3113 3113 3113 3113 3114 3114 3114 3114 3114 3115 3115 3115 3115 3115 3116 3116 3116 3116 3116 3116 3117 3117 3117 3117 3117 3117 3117 3117
3101 3103 3104 3105 3106 3107 3107 3108 3109 3109 3110 3111 3111 3111 3111 3111 3111 3112 3112 3112 3113 3113 3113 3113 3113 3113 3114 3114 3114 3114 3115 3115 3116 3116 3116 3116 3116 3116 3116 3116 3116 3116
3099 3101 3102 3104 3105 3105 3105 3106 3107 3108 3108 3109 3109 3110 3110 3110 3110 3110 3110 3110 3111 3111 3111 3111 3111 3112 3112 3112 3112 3113 3113 3114 3114 3114 3114 3114 3115 3115 3115 3116 3116 3115
3098 3099 3101 3102 3102 3102 3103 3104 3104 3104 3105 3106 3107 3107 3107 3108 3108 3108 3108 3108 3108 3109 3109 3109 3109 3109 3110 3111 3111 3111 3111 3111 3112 3112 3112 3112 3113 3113 3113 3113 3114 3114
3095 3096 3097 3098 3099 3099 3100 3101 3101 3100 3101 3102 3103 3103 3104 3104 3104 3104 3104 3104 3105 3106 3106 3106 3107 3107 3107 3108 3109 3109 3109 3109 3110 3110 3110 3110 3110 3111 3110 3110 3111 3111
3092 3093 3094 3095 3096 3097 3097 3098 3097 3096 3097 3099 3099 3100 3101 3101 3099 3099 3099 3100 3101 3102 3103 3103 3104 3104 3104 3105 3105 3106 3107 3107 3107 3107 3108 3108 3108 3108 3108 3108 3108 3108
3089 3090 3091 3093 3093 3094 3094 3095 3094 3093 3095 3097 3097 3098 3098 3097 3096 3096 3097 3098 3099 3100 3100 3100 3100 3100 3100 3102 3103 3103 3104 3104 3104 3105 3105 3105 3105 3105 3105 3105 3106 3106
3088 3088 3089 3090 3091 3091 3091 3092 3091 3092 3093 3094 3095 3095 3095 3094 3095 3095 3096 3096 3097 3098 3098 3097 3096 3096 3098 3100 3101 3101 3100 3101 3101 3101 3102 3102 3102 3102 3102 3102 3103 3103
3085 3086 3087 3088 3088 3089 3089 3089 3089 3089 3090 3091 3092 3093 3093 3092 3093 3093 3093 3093 3094 3095 3094 3094 3094 3096 3098 3099 3100 3099 3098 3097 3097 3097 3098 3098 3098 3098 3098 3099 3099 3099
3083 3084 3084 3085 3085 3086 3086 3086 3085 3086 3087 3088 3089 3090 3090 3090 3089 3090 3090 3091 3091 3091 3091 3091 3092 3094 3095 3096 3096 3096 3095 3094 3093 3093 3094 3094 3094 3094 3095 3095 3095 3095
3081 3081 3082 3082 3082 3082 3083 3083 3083 3083 3083 3084 3085 3086 3086 3086 3086 3086 3087 3088 3087 3087 3087 3087 3088 3090 3091 3091 3092 3093 3092 3091 3089 3089 3089 3090 3089 3090 3091 3091 3091 3091
3078 3078 3079 3079 3079 3079 3079 3080 3080 3080 3080 3080 3081 3081 3082 3082 3082 3082 3083 3084 3084 3083 3083 3082 3083 3084 3085 3086 3088 3089 3089 3088 3086 3084 3084 3085 3085 3085 3086 3087 3087 3087
3074 3075 3075 3075 3076 3076 3076 3076 3076 3077 3077 3077 3077 3077 3077 3078 3078 3078 3078 3079 3079 3079 3079 3079 3079 3080 3080 3081 3083 3084 3084 3084 3083 3081 3080 3080 3081 3081 3082 3082 3082 3082
3070 3071 3071 3071 3072 3072 3072 3073 3073 3073 3074 3074 3074 3074 3074 3074 3074 3074 3074 3074 3075 3075 3075 3075 3075 3076 3076 3077 3079 3080 3080 3079 3079 3077 3076 3076 3077 3077 3078 3078 3078 3077
3067 3067 3067 3067 3067 3068 3068 3069 3069 3069 3070 3070 3070 3071 3071 3071 3071 3070 3070 3070 3071 3071 3071 3070 3070 3070 3072 3074 3075 3075 3075 3075 3073 3072 3072 3072 3073 3073 3073 3073 3073 3073
3064 3064 3064 3064 3064 3064 3064 3065 3065 3065 3065 3066 3066 3067 3067 3067 3067 3067 3066 3066 3067 3067 3066 3065 3065 3066 3068 3069 3070 3070 3070 3070 3069 3067 3068 3068 3069 3069 3069 3068 3068 3068
3060 3060 3060 3060 3061 3061 3061 3061 3061 3061 3062 3062 3062 3062 3062 3062 3062 3062 3062 3062 3062 3062 3062 3062 3062 3063 3064 3064 3065 3065 3065 3065 3064 3063 3064 3064 3064 3064 3063 3063 3063 3063
3056 3056 3056 3056 3056 3057 3057 3057 3057 3058 3058 3058 3058 3058 3058 3058 3058 3058 3058 3057 3057 3057 3058 3059 3059 3059 3059 3059 3060 3060 3060 3060 3060 3059 3059 3059 3059 3058 3058 3058 3058 3058
3053 3053 3052 3052 3052 3052 3053 3053 3053 3054 3054 3054 3054 3054 3054 3054 3053 3053 3053 3052 3053 3053 3054 3055 3055 3055 3055 3055 3055 3055 3056 3056 3055 3055 3055 3054 3053 3053 3053 3053 3053 3053
3049 3049 3048 3048 3048 3048 3048 3048 3049 3049 3049 3049 3049 3049 3049 3049 3048 3048 3048 3048 3049 3049 3050 3050 3050 3050 3050 3050 3050 3051 3051 3051 3051 3050 3050 3049 3049 3049 3049 3048 3048 3048